TimeCDT,TemperatureF,Dew PointF,Humidity,Sea Level PressureIn,VisibilityMPH,Wind Direction,Wind SpeedMPH,Gust SpeedMPH,PrecipitationIn,Events,Conditions,WindDirDegrees,DateUTC
12:55 AM,41.0,30.2,65,30.25,10.0,NNE,10.4,-,N/A,,Clear,20,2012-10-26 05:55:00
1:15 AM,41.0,30.2,65,30.25,10.0,NNE,9.2,-,N/A,,Clear,20,2012-10-26 06:15:00
1:35 AM,39.2,30.2,70,30.26,10.0,NNE,9.2,-,N/A,,Clear,20,2012-10-26 06:35:00
1:55 AM,39.2,30.2,70,30.26,10.0,North,10.4,-,N/A,,Clear,10,2012-10-26 06:55:00
2:15 AM,39.2,30.2,70,30.26,10.0,NNE,10.4,-,N/A,,Clear,20,2012-10-26 07:15:00
2:35 AM,39.2,30.2,70,30.28,10.0,North,9.2,-,N/A,,Clear,10,2012-10-26 07:35:00
2:55 AM,37.4,30.2,75,30.28,10.0,NNE,10.4,-,N/A,,Clear,20,2012-10-26 07:55:00
3:15 AM,37.4,30.2,75,30.27,10.0,NNE,11.5,-,N/A,,Clear,20,2012-10-26 08:15:00
3:35 AM,37.4,30.2,75,30.28,10.0,North,10.4,-,N/A,,Clear,10,2012-10-26 08:35:00
3:55 AM,37.4,30.2,75,30.28,10.0,NNE,12.7,-,N/A,,Clear,20,2012-10-26 08:55:00
4:15 AM,37.4,30.2,75,30.29,10.0,North,10.4,-,N/A,,Clear,360,2012-10-26 09:15:00
4:35 AM,35.6,30.2,81,30.29,10.0,North,8.1,-,N/A,,Clear,10,2012-10-26 09:35:00
4:55 AM,35.6,30.2,81,30.29,10.0,NNE,9.2,-,N/A,,Clear,20,2012-10-26 09:55:00
5:15 AM,33.8,30.2,87,30.29,10.0,North,6.9,-,N/A,,Clear,10,2012-10-26 10:15:00
5:35 AM,33.8,30.2,87,30.31,10.0,North,8.1,-,N/A,,Clear,360,2012-10-26 10:35:00
5:55 AM,33.8,28.4,81,30.32,10.0,North,11.5,-,N/A,,Clear,10,2012-10-26 10:55:00
6:15 AM,33.8,28.4,81,30.34,10.0,North,9.2,-,N/A,,Clear,360,2012-10-26 11:15:00
6:35 AM,33.8,28.4,81,30.34,10.0,North,11.5,-,N/A,,Scattered Clouds,10,2012-10-26 11:35:00
6:55 AM,33.8,28.4,81,30.35,10.0,North,12.7,-,N/A,,Scattered Clouds,10,2012-10-26 11:55:00
7:15 AM,33.8,28.4,81,30.36,10.0,North,12.7,-,N/A,,Mostly Cloudy,10,2012-10-26 12:15:00
7:35 AM,33.8,28.4,81,30.37,10.0,NNE,17.3,-,N/A,,Overcast,30,2012-10-26 12:35:00
7:55 AM,33.8,28.4,81,30.38,10.0,NNE,17.3,-,N/A,,Overcast,20,2012-10-26 12:55:00
8:15 AM,33.8,28.4,81,30.39,10.0,North,15.0,23.0,N/A,,Overcast,10,2012-10-26 13:15:00
8:35 AM,33.8,26.6,75,30.41,10.0,North,15.0,24.2,N/A,,Overcast,10,2012-10-26 13:35:00
8:55 AM,33.8,26.6,75,30.42,10.0,North,17.3,24.2,N/A,,Overcast,360,2012-10-26 13:55:00
9:15 AM,33.8,26.6,75,30.43,10.0,North,18.4,23.0,N/A,,Overcast,360,2012-10-26 14:15:00
9:35 AM,33.8,26.6,75,30.45,10.0,North,21.9,25.3,N/A,,Overcast,360,2012-10-26 14:35:00
9:55 AM,35.6,26.6,70,30.45,10.0,North,19.6,26.5,N/A,,Overcast,10,2012-10-26 14:55:00
10:15 AM,35.6,26.6,70,30.46,10.0,North,21.9,27.6,N/A,,Overcast,350,2012-10-26 15:15:00
10:35 AM,35.6,26.6,70,30.46,10.0,North,21.9,28.8,N/A,,Overcast,10,2012-10-26 15:35:00
10:55 AM,35.6,26.6,70,30.47,10.0,North,20.7,25.3,N/A,,Mostly Cloudy,360,2012-10-26 15:55:00
11:15 AM,37.4,26.6,65,30.46,10.0,North,20.7,26.5,N/A,,Scattered Clouds,10,2012-10-26 16:15:00
11:35 AM,39.2,24.8,56,30.45,10.0,North,20.7,26.5,N/A,,Scattered Clouds,10,2012-10-26 16:35:00
11:55 AM,41.0,24.8,53,30.45,10.0,North,18.4,26.5,N/A,,Clear,10,2012-10-26 16:55:00
12:15 PM,41.0,24.8,53,30.44,10.0,North,21.9,27.6,N/A,,Clear,10,2012-10-26 17:15:00
12:35 PM,42.8,24.8,49,30.44,10.0,NNE,21.9,26.5,N/A,,Clear,20,2012-10-26 17:35:00
12:55 PM,42.8,23.0,46,30.43,10.0,North,23.0,27.6,N/A,,Clear,10,2012-10-26 17:55:00
1:15 PM,44.6,23.0,43,30.43,10.0,North,19.6,27.6,N/A,,Clear,10,2012-10-26 18:15:00
1:35 PM,44.6,23.0,43,30.41,10.0,NNE,23.0,27.6,N/A,,Clear,20,2012-10-26 18:35:00
1:55 PM,46.4,23.0,40,30.40,10.0,North,17.3,26.5,N/A,,Clear,360,2012-10-26 18:55:00
2:15 PM,48.2,23.0,37,30.39,10.0,North,18.4,25.3,N/A,,Clear,10,2012-10-26 19:15:00
2:35 PM,46.4,21.2,37,30.39,10.0,North,16.1,26.5,N/A,,Clear,10,2012-10-26 19:35:00
2:55 PM,50.0,21.2,32,30.38,10.0,North,21.9,26.5,N/A,,Clear,10,2012-10-26 19:55:00
3:15 PM,50.0,21.2,32,30.38,10.0,North,19.6,-,N/A,,Clear,10,2012-10-26 20:15:00
3:35 PM,50.0,19.4,30,30.37,10.0,North,17.3,21.9,N/A,,Clear,360,2012-10-26 20:35:00
3:55 PM,50.0,19.4,30,30.37,10.0,North,15.0,25.3,N/A,,Clear,10,2012-10-26 20:55:00
4:15 PM,50.0,19.4,30,30.36,10.0,NNE,17.3,-,N/A,,Clear,20,2012-10-26 21:15:00
4:35 PM,50.0,19.4,30,30.36,10.0,North,17.3,-,N/A,,Clear,10,2012-10-26 21:35:00
4:55 PM,50.0,19.4,30,30.36,10.0,NNE,18.4,25.3,N/A,,Clear,30,2012-10-26 21:55:00
5:15 PM,50.0,17.6,28,30.36,10.0,North,15.0,-,N/A,,Clear,10,2012-10-26 22:15:00
5:35 PM,50.0,19.4,30,30.36,10.0,North,16.1,-,N/A,,Clear,360,2012-10-26 22:35:00
5:55 PM,48.2,19.4,32,30.37,10.0,North,15.0,-,N/A,,Clear,360,2012-10-26 22:55:00
6:15 PM,46.4,17.6,32,30.37,10.0,North,16.1,23.0,N/A,,Clear,10,2012-10-26 23:15:00
6:35 PM,44.6,19.4,37,30.37,10.0,North,16.1,19.6,N/A,,Clear,10,2012-10-26 23:35:00
6:55 PM,42.8,19.4,39,30.38,10.0,North,10.4,-,N/A,,Clear,10,2012-10-26 23:55:00
7:15 PM,42.8,19.4,39,30.38,10.0,North,10.4,-,N/A,,Clear,10,2012-10-27 00:15:00
7:35 PM,41.0,19.4,42,30.39,10.0,NNE,10.4,-,N/A,,Clear,20,2012-10-27 00:35:00
7:55 PM,41.0,19.4,42,30.39,10.0,NNE,11.5,-,N/A,,Clear,20,2012-10-27 00:55:00
8:15 PM,41.0,19.4,42,30.39,10.0,NNE,9.2,-,N/A,,Clear,20,2012-10-27 01:15:00
8:35 PM,37.4,19.4,48,30.39,10.0,NNE,9.2,-,N/A,,Clear,20,2012-10-27 01:35:00
8:55 PM,37.4,19.4,48,30.40,10.0,NNE,8.1,-,N/A,,Clear,20,2012-10-27 01:55:00
9:35 PM,37.4,19.4,48,30.40,10.0,North,9.2,-,N/A,,Clear,10,2012-10-27 02:35:00
9:55 PM,35.6,21.2,56,30.40,10.0,NNE,10.4,-,N/A,,Clear,20,2012-10-27 02:55:00
10:15 PM,35.6,19.4,52,30.40,10.0,NNE,9.2,-,N/A,,Clear,20,2012-10-27 03:15:00
10:35 PM,33.8,19.4,56,30.40,10.0,NNE,8.1,-,N/A,,Clear,30,2012-10-27 03:35:00
10:55 PM,33.8,21.2,60,30.40,10.0,NE,9.2,-,N/A,,Clear,40,2012-10-27 03:55:00
11:15 PM,32.0,21.2,64,30.39,10.0,NNE,8.1,-,N/A,,Clear,20,2012-10-27 04:15:00
11:35 PM,32.0,21.2,64,30.39,10.0,NNE,8.1,-,N/A,,Clear,20,2012-10-27 04:35:00